Regional Weather Roundup
Issued by NWS Little Rock, AR

Current Version |  Previous Version |  Text Only |  Print | Product List |  Glossary On
Versions: 1 2 3 4 5 6 7 8 9 10 11 12 13 14 15 16 17 18 19 20 21 22 23 24 25 26 27
224
ASUS44 KLZK 250210
RWRLZK

WEATHER ROUNDUP FOR ARKANSAS
NATIONAL WEATHER SERVICE LITTLE ROCK AR
900 PM CDT MON JUN 24 2024

NOTE: "FAIR" INDICATES FEW OR NO CLOUDS BELOW 12,000 FEET WITH NO
SIGNIFICANT WEATHER AND/OR OBSTRUCTIONS TO VISIBILITY.

ARZ001-010-029-103-250300-
NORTHWEST ARKANSAS

CITY           SKY/WX    TMP DP  RH WIND       PRES   REMARKS
FAYETTEVILLE   CLEAR     86  73  65 S3        29.92S HX  93
FORT SMITH     CLEAR     91  73  55 S7        29.87R HX  99
HARRISON       CLEAR     86  68  54 CALM      29.94R HX  89
ROGERS         CLEAR     87  72  60 S6        29.93S HX  93
SILOAM SPGS    CLEAR     86  73  65 S5        29.92S HX  93
HIGHFILL       CLEAR     86  70  58 S5        29.92S HX  90
SPRINGDALE     CLEAR     88  79  74 S5        29.93S HX 102
$$

ARZ004-005-016-250300-
NORTH CENTRAL ARKANSAS

CITY           SKY/WX    TMP DP  RH WIND       PRES   REMARKS
BATESVILLE     CLEAR     87  73  62 SE5       29.91S HX  94
FLIPPIN        CLEAR     89  72  56 MISG      29.90R HX  96
MTN HOME       CLEAR     86  69  56 SW3       29.90R HX  90
$$

ARZ140-141-250300-
WEST CENTRAL ARKANSAS

CITY           SKY/WX    TMP DP  RH WIND       PRES   REMARKS
MENA           CLEAR     82  74  77 CALM      29.92S HAZE    HX  88
MOUNT IDA      CLEAR     84  73  69 CALM      29.90R HX  90
$$

ARZ009-017-025-026-028-250300-
NORTHEAST ARKANSAS

CITY           SKY/WX    TMP DP  RH WIND       PRES   REMARKS
JONESBORO      CLEAR     83  69  62 CALM      29.91R HX  86
NEWPORT        CLEAR     83  73  72 SE6       29.91R HX  89
WALNUT RIDGE   CLEAR     84  75  74 SE8       29.90S HX  92
BLYTHEVILLE    CLEAR     87  67  51 S3        29.90S HX  90
$$

ARZ032-043-044-250300-
LITTLE ROCK METRO AREA

CITY           SKY/WX    TMP DP  RH WIND       PRES   REMARKS
LITTLE ROCK    PTCLDY    88  76  67 S5        29.89S HX  99
N LTL ROCK NWS   N/A     89  76  66 CALM      29.89R HX 100
NLR AIRPORT    PTCLDY    88  77  70 S3        29.90R HX 100
BENTON         CLEAR     86  81  84 CALM      29.90R HX 102
JACKSONVILLE   PTCLDY    85  76  75 CALM      29.86S HX  95
$$

ARZ033-042-122-123-250300-
REMAINDER OF CENTRAL ARKANSAS

CITY           SKY/WX    TMP DP  RH WIND       PRES   REMARKS
SEARCY         CLEAR     83  77  82 CALM      29.90S HX  92
HOT SPRINGS    PTCLDY    90  72  55 CALM      29.91R HX  97
RUSSELLVILLE   PTCLDY    86  75  69 CALM      29.88R HX  95
CLINTON        CLEAR     84  77  79 CALM      29.90S HX  94
$$

ARZ036-250300-
EAST ARKANSAS

CITY           SKY/WX    TMP DP  RH WIND       PRES   REMARKS
WEST MEMPHIS   CLEAR     83  73  72 CALM      29.89S HX  89
$$

ARZ050-053-066-070-072-073-250300-
SOUTHWEST ARKANSAS

CITY           SKY/WX    TMP DP  RH WIND       PRES   REMARKS
CAMDEN         CLEAR     86  81  84 CALM      29.88S HX 102
TEXARKANA      CLEAR     89  72  56 S3        29.90R HX  96
MAGNOLIA       CLEAR     81  77  89 CALM      29.89R HX  88
EL DORADO      PTCLDY    84  78  82 CALM      29.90S HX  95
DE QUEEN       CLEAR     85  77  77 CALM      29.87S HX  95
$$

ARZ056-057-069-250300-
SOUTHEAST ARKANSAS

CITY           SKY/WX    TMP DP  RH WIND       PRES   REMARKS
PINE BLUFF     PTCLDY    86  79  79 SE3       29.89S HX  99
STUTTGART      PTCLDY    91  79  67 S5        29.90S HX 107
MONTICELLO     CLEAR     86  79  79 CALM      29.90S HX  99

$$